Погода в Кюсюре

Погода в Кюсюре : погода сейчас, прогноз погоды и архив. Всё, что Вы хотите узнать о погоде в Кюсюре!

Хотите узнать прогноз погоды в Кюсюре? Тогда Вам сюда: Погода в Кюсюре

Поиск расширенной информации на нашем сайте:

Другие новости

Новости СМИ2

Главная страница сайта

Новости сайта

03.07.2017

Напоминаем, что на нашем специализированном сайте Метеоцентр.Азия вы можете получить высокодетализированные автоматические прогнозы погоды по пунктам России, СНГ и мира в авиационном формате (включающие направление и скорость ветра, видимость, явления погоды, количество и форму облачности, нижнюю и верхнюю границу облачности).


Погода в Кюсюре - сегодня

Время (UTC), дата Ветер
(°,м/с) 
Видим.   Явления Облачность Т
(°С)
Тd
(°С)
f(%) Тe
(°С)
Pmin
(гПа)
dP
(гПа)
Po
(мм)
O2
(г/м3)
Тmin Tmax R s Состояние
почвы
18 13.08.18 180 (Ю) 4000 м  дым  10/10 300 м 
[Sc]
+19.2 +8.5 50 +20  1012.2  1.1  756  283           
21 13.08.18 190 (Ю) 4000 м  дым  9/9 300 м 
[Sc]
+17.9 +8.4 54 +18  1012.7  0.5  757  285           
03 14.08.18 200 (Ю) 4000 м  дым  8/0 средняя 
[Ac trans]
+22.5 +9.8 44 +23  1013.3  0.3  757  280           
06 14.08.18 230 (ЮЗ) 4000 м  дым  6/0 средняя 
[Ac trans]
+23.7 +10.3 43 +25  1012.4  -0.9  757  279           
09 14.08.18 190 (Ю) 4000 м  дым  8/0 средняя 
[Ac trans]
+22 +10.1 47 +23  1011.4  -1  756  280           
15 14.08.18 190 (Ю) 4000 м  дым  8/0 средняя 
[Ac trans]
+18.7 +8 50 +19  1010.9  -0.1  755  284           
18 14.08.18 180 (Ю) 4000 м    8/0 средняя 
[Ac trans]
+19.9 +9.4 51 +21  1011.4  0.5  756  282           
21 14.08.18 190 (Ю) 4000 м  дым{дождь}  10/0 средняя 
[As op]
+14.6 +12.8 89 +20  1011.6  0.1  756  287           
03 15.08.18 190 (Ю) 4000 м  дым{дождь}  10/0 средняя 
[As op]
+14.5 +13.4 93 +21  1011.3  -0.3  756  286           
06 15.08.18 170 (Ю) 4000 м  дым{дождь}  10/0 средняя 
[As op]
+14.2 +13.3 94 +20  1010.7  -0.6  755  287           
09 15.08.18 170 (Ю) 4000 м  дым  10/0 средняя 
[As op]
+14.9 +13.3 90 +21  1009.3  -1.4  754  285           
15 15.08.18 210 (ЮЗ) 4000 м  дым  10/0 средняя 
[As op]
+14.9 +13.3 90 +22  1008  -0.9  753  285           
18 15.08.18 210 (ЮЗ) 4000 м  дым  10/0 средняя 
[As op]
+14.2 +12.9 92 +19  1007.1  -0.9  752  286           
21 15.08.18 170 (Ю) 4000 м  дым  10/0 средняя 
[As op]
+13.9 +12.2 89 +18  1005.8  -1.3  752  286           
03 16.08.18 220 (ЮЗ) 4000 м  дым  10/0 средняя 
[Ac und]
+15.3 +13.5 89 +22  1003.9  -1  750  283           
06 16.08.18 180 (Ю) 4000 м  дым  10/0 средняя 
[Ac und]
+17.9 +14.4 80 +26  1003.3  -0.6  750  281           
09 16.08.18 200 (Ю) 4000 м  дым  9/0 средняя 
[Ac und]
+17.4 +13.5 78 +24  1002.6  -0.7  749  281           
15 16.08.18 250 (З) 20000 м  {дождь}  9/0 средняя 
[Ac und]
+13.6 +10.3 80 +16  1005.1  1.1  751  286           
18 16.08.18 тихо ()   20000 м  {дождь}  9/0 средняя 
[Ac und]
+12.7 +10.4 86 +14  1006.5  1.4  752  288           
21 16.08.18 260 (З) 20000 м    9/9 600 м 
[Sc]
+12.6 +9.7 82 +15  1007.5  753  288           
00 17.08.18 010 (С) 20000 м    9/9 300 м 
[Sc]
+11.1 +8.6 85 +11  1009  1.4  754  290  +10.1    0.0    влажная 
03 17.08.18 010 (С) 20000 м    10/0 
[Sc]
+13.1 +6.7 65 +14  1009.1  0.1  754  289           
06 17.08.18 010 (С) 20000 м    9/0 
[Sc]
+14.7 +7.4 62 +16  1008  -1  753  287           
09 17.08.18 010 (С) 20000 м    8/0 
[Sc]
+15.4 +8.5 63 +17  1006.5  -1.5  752  285           
12 17.08.18 020 (С) 20000 м    9/0 
[Sc]
+13.6 +8.9 73 +14  1005.3  -1.2  751  287    +16.1       
Время (UTC), дата Ветер
(°,м/с) 
Видим.   Явления Облачность Т
(°С)
Тd
(°С)
f(%) Тe
(°С)
Pmin
(гПа)
dP
(гПа)
Po
(мм)
O2
(г/м3)
Тmin Tmax R s Состояние
почвы

Для получения пояснительной информации подведите курсор к названию столбца.

ПОГОДА в Кюсюре - архив

Всё, что Вы хотите узнать о погоде в Кюсюре - удобно и подробно!

Выберите нужную дату (начиная с 1 января 2015* года) и нажмите кнопку "Найти".
Будут отображены архивные сводки погоды по пункту Кюсюр, начиная с указанной даты.


Отображать данные в формате CSV (для использования в таблицах Excel)


Внимание! Наш архив погоды предназначен исключительно для личного некоммерческого использования в познавательных целях. Если Вам необходимы официальные справки о состоянии погоды (для производственных, юридических, коммерческих и т.п. целей), обращайтесь в органы Росгидромета.

*Примечание: данная дата относится к архиву по метеостанциям СССР (Россия, СНГ, Балтия).
Архив по метеостанциям Зарубежной Европы и Азии (кроме Китая) хранится 10 дней, по другим регионам земного шара (Китай, Африка, Америка, Австралия, Океания) - 1 день.

Кюсюр - район местоположения метеостанции


Название, широта, долгота, высота метеостанции:
Кюсюр 70.7°ш. 127.4°д. 33 м над ур. моря [Российская Федерация]

Дополнительная информация

В oтличие oт бoльшинства пoгoдных сайтoв мы публикуем пoдрoбную метеoинфoрмацию в детальнoм прoфессиoнальнoм фoрмате.

Характеристики температуры и влажнoсти вoздуха измеряются на высoте 2 м в тени вдали oт зданий и деревьев.
Скoрoсть ветра измеряется на высoте 10 м (на урoвне рoста челoвека скoрoсть ветра ниже в 1.5-2 раза). Если метеoстанция нахoдится в гoрoде или в лесу, тo скoрoсть ветра занижена на 2-4 м/с пo сравнению с oткрытым местoм. Скoрoсть ветра над акватoриями крупных рек и oзёр, а также на вершинах хoлмoв на 2-5 м/с выше, чем в oбычных услoвиях.
Атмoсфернoе давление в разных тoчках местнoсти мoжет значительнo oтличаться oт давления на метеoстанции, в зависимoсти oт услoвий рельефа (при пoдъёме на 10 м давление пoнижается примернo на 1 мм рт.ст.).